Temp
20 19 17 16 16 16 16 15 15 15 15 14 14 15 15 16 17 18 18 17 15 15 16 17 17 16 13 11 10 9 9 9 9 9 9 8 8 8 8 8 7 7 8 8 8 7 7 7 7 7 7 6 6 6 6 6 6 5 5 5 5 5 5 5 5 5 5 5 5 5 5 5 5 5 5 5 6 6 6 6 6 6 5 5 5 5
20 17 16 16 16 15 15 14 14 14 14 14 15 16 16 17 17 17 18 16 15 15 15 17 17 16 15 12 10 9 9 9 9 9 8 8 8 8 8 7 7 8 8 8 8 7 7 7 7 6 6 6 6 6 6 6 6 5 5 5 5 5 4 4 4 4 4 4 4 4 4 5 5 5 5 5 4 5 5 5 5 5 5 5 4 5
19 17 16 16 15 15 15 14 15 15 15 15 16 17 16 16 16 16 17 16 16 14 14 16 16 16 16 12 10 10 9 9 9 8 8 8 8 8 8 7 7 7 7 7 7 7 7 6 6 6 6 6 6 6 6 6 6 5 5 5 5 5 4 4 4 4 4 3 3 3 4 4 4 4 5 5 4 4 4 4 4 4 4 4 4 4
18 17 16 15 14 15 16 16 16 16 16 17 17 16 15 15 15 15 16 16 16 15 15 15 14 15 15 11 10 10 9 9 8 8 8 8 8 7 7 7 7 7 7 7 7 8 9 7 6 6 6 6 6 6 6 6 6 5 5 5 5 5 4 4 4 4 3 3 3 3 3 3 4 4 4 5 5 4 4 4 4 3 3 3 3 3
17 16 15 14 14 15 16 17 16 15 16 17 16 15 14 14 14 14 15 16 16 16 15 14 14 15 14 10 10 10 9 8 8 8 8 8 8 7 7 7 7 7 7 7 7 8 9 7 7 6 6 6 6 6 6 5 5 5 5 5 5 5 5 4 4 4 4 4 3 3 3 2 3 3 4 4 5 5 5 4 4 4 3 3 3 3
17 14 13 14 15 16 17 16 15 14 15 16 15 14 14 14 14 14 15 15 15 16 14 13 13 15 14 11 11 9 8 8 8 8 8 8 8 7 7 7 7 7 7 7 7 7 7 6 6 6 6 6 5 5 5 5 5 5 5 5 5 5 5 4 4 4 4 4 4 3 3 2 2 2 3 3 4 4 4 4 4 4 4 3 3 3
17 15 14 15 16 17 17 16 15 14 14 16 15 14 14 14 14 14 15 14 14 15 15 14 13 14 15 14 12 10 8 8 8 8 8 8 7 7 7 7 7 7 7 7 7 6 6 6 6 6 6 5 5 5 5 5 5 5 5 5 5 5 4 4 4 4 4 4 4 3 3 3 2 2 2 2 3 3 3 3 3 4 4 4 4 3
16 16 15 16 17 17 16 15 15 14 13 15 16 14 14 14 14 14 14 14 14 15 15 16 14 13 14 15 13 10 9 9 8 8 8 7 7 7 7 7 6 6 6 6 6 6 6 6 6 5 5 5 5 5 5 5 5 5 5 5 5 4 4 4 4 4 3 3 3 3 3 3 2 2 2 2 2 2 2 2 2 3 3 3 3 3
15 16 15 15 16 16 15 15 15 14 13 15 15 14 14 14 14 14 14 14 15 14 14 16 15 13 14 15 12 9 9 9 8 7 7 6 7 6 6 6 6 6 6 6 5 6 6 6 5 5 5 5 5 4 4 4 4 4 4 4 4 4 4 3 3 3 3 3 3 3 3 3 3 2 2 2 2 1 1 1 1 2 2 2 2 2
14 14 13 14 15 14 14 15 15 14 14 15 15 14 14 14 15 15 14 14 14 13 14 16 15 13 13 15 14 11 10 9 7 7 7 6 6 6 6 6 6 6 6 6 5 6 6 5 5 5 5 5 5 4 4 4 4 4 4 3 3 3 3 3 3 3 3 3 3 3 3 3 3 3 2 2 2 2 1 1 1 1 1 1 1 1
13 11 11 13 14 14 14 14 15 14 13 14 14 14 14 15 16 16 15 15 14 13 14 15 15 13 11 13 13 10 7 6 5 6 6 6 6 6 6 5 6 6 5 5 5 5 5 5 5 5 5 5 5 4 4 4 4 3 3 3 3 3 3 3 3 3 2 2 2 2 2 2 2 2 2 2 2 2 1 1 1 1 1 1 1 1
14 13 13 12 12 13 14 14 15 13 13 14 14 14 14 14 15 15 15 15 13 12 14 14 14 13 11 12 10 6 5 5 5 5 5 5 5 5 5 5 5 5 5 5 5 5 5 5 5 5 4 4 4 4 4 3 3 3 2 2 3 3 3 3 2 2 2 2 2 2 2 2 2 2 2 2 2 2 2 2 1 1 1 1 0 0
17 15 14 12 11 13 14 14 15 14 14 15 14 13 12 12 12 12 12 13 12 12 13 14 13 11 12 12 8 6 6 5 5 5 5 5 5 5 5 5 5 5 5 5 5 5 5 5 5 5 4 4 3 3 3 3 3 2 2 2 2 2 2 2 2 2 2 2 2 2 2 2 2 2 2 2 2 2 1 1 1 1 1 1 1 1
16 16 15 13 13 14 14 14 13 13 14 14 13 12 11 10 9 8 10 11 11 11 12 13 11 10 12 11 7 6 6 5 5 6 5 6 5 5 5 5 5 5 5 4 4 4 5 5 5 4 3 3 3 3 3 3 2 2 1 2 2 2 2 1 1 1 1 1 1 1 1 1 1 1 1 2 1 1 1 1 1 1 1 1 1 1
15 15 15 14 14 15 14 12 12 12 13 13 13 12 11 10 8 8 9 9 9 9 10 11 11 11 11 9 7 7 6 6 6 6 6 6 5 5 5 5 5 4 4 4 4 4 4 4 4 3 3 3 3 3 2 2 2 1 1 2 2 2 1 1 1 1 1 1 1 1 1 1 1 1 1 1 1 1 1 1 1 1 1 1 1 1
14 15 15 14 14 14 13 12 11 12 12 13 14 13 11 10 10 9 9 9 9 9 9 10 11 12 11 8 6 6 6 7 7 6 6 5 5 5 4 4 4 4 4 4 4 3 3 3 3 3 3 2 2 2 2 2 1 0 1 1 1 1 1 0 0 1 0 0 0 0 0 1 0 0 0 0 0 0 0 1 1 1 1 1 1 1
13 15 16 15 14 13 13 12 12 11 12 12 12 11 10 11 10 9 9 10 9 8 8 10 10 10 10 8 6 6 6 7 7 7 6 5 5 5 4 4 4 4 4 4 3 3 3 3 3 3 2 2 2 1 1 0 -0 -0 1 1 1 0 0 -0 0 0 -0 -0 0 -0 -0 -0 -0 0 0 0 0 0 0 0 1 1 1 1 1 1
11 12 15 15 14 13 11 11 11 11 11 11 10 10 10 11 10 9 8 8 7 6 7 9 8 8 8 7 6 6 7 7 7 6 5 5 5 4 4 4 4 4 3 3 3 3 3 3 3 2 2 2 1 -0 -1 -0 -0 0 1 1 -0 -1 -1 -0 -0 -0 -0 -0 -0 -0 -0 -1 -1 -0 0 0 0 0 0 0 1 1 1 1 1 1
10 11 14 14 14 13 12 12 11 11 11 11 10 10 9 8 8 8 7 6 5 5 5 7 7 6 7 8 7 7 7 6 6 5 4 4 4 3 3 3 3 3 3 3 3 2 2 3 2 2 2 1 0 -1 -0 0 0 0 1 0 -1 -1 -1 -0 -0 -0 -0 -0 -0 -1 -1 -1 -1 -1 -1 -0 0 0 -0 0 1 1 1 1 1 1
10 11 13 13 14 15 14 13 12 11 11 11 11 10 9 8 7 7 7 6 5 4 4 5 5 6 7 7 6 6 6 6 5 4 3 3 3 3 3 3 3 3 3 3 2 2 2 2 2 2 1 0 -1 -1 -0 -0 -0 -0 -0 -0 -1 -2 -1 -1 -1 -1 -1 -0 -0 -1 -1 -1 -1 -1 -2 -1 -1 -0 -0 0 1 1 1 1 1 1
10 11 12 13 15 15 14 13 11 11 10 10 10 9 8 7 7 7 7 7 5 4 3 3 3 5 7 7 6 6 6 5 4 4 3 3 3 2 2 3 3 2 2 2 2 2 2 2 1 1 0 -1 -1 -0 -0 -1 -1 -1 -1 -1 -2 -2 -2 -2 -1 -1 -1 -0 -0 -1 -1 -1 -1 -2 -2 -2 -1 -1 -0 0 0 0 0 1 0 0
10 11 11 12 13 14 13 11 10 10 10 9 9 8 7 6 6 5 5 6 6 4 3 2 2 3 6 7 7 6 5 5 4 3 3 2 2 2 2 2 2 2 2 2 2 2 2 1 1 -0 -1 -1 -0 -0 -1 -1 -1 -1 -2 -2 -2 -2 -2 -2 -1 -1 -1 -1 -1 -1 -1 -2 -2 -2 -2 -2 -1 -1 -0 -0 -0 -0 -0 -0 -0 -0
8 9 10 11 13 13 11 9 9 9 8 8 7 7 7 6 5 4 4 4 4 4 3 3 2 3 6 7 6 5 5 4 3 3 2 2 2 2 2 2 2 2 2 2 2 1 1 1 -0 -1 -1 -0 -0 -1 -1 -1 -2 -2 -2 -2 -2 -2 -2 -2 -2 -2 -3 -2 -2 -2 -3 -3 -2 -2 -2 -2 -2 -1 -1 -1 -0 -0 -1 -1 -1 -1
7 9 11 11 13 12 10 8 8 8 7 8 8 7 6 5 4 4 4 3 3 2 3 2 1 3 6 6 5 5 4 3 3 2 2 1 1 2 2 2 2 1 2 2 1 1 1 0 -0 -0 -0 -1 -1 -1 -1 -2 -2 -3 -3 -3 -3 -3 -4 -4 -4 -4 -4 -3 -3 -3 -3 -3 -3 -3 -3 -2 -2 -1 -1 -1 -1 -0 -0 -0 -0 -0
8 11 11 10 10 10 10 9 9 8 9 10 9 6 4 4 3 3 3 3 2 2 2 1 -0 2 4 5 4 4 3 2 2 2 1 1 1 1 1 1 1 1 1 1 1 1 0 -0 -0 -0 -1 -1 -1 -2 -2 -3 -3 -3 -4 -4 -4 -5 -5 -4 -4 -4 -4 -4 -4 -4 -3 -3 -3 -3 -3 -2 -2 -1 -1 -1 -1 -1 -1 -0 -0 -0
7 11 11 8 7 8 8 9 9 9 9 9 9 6 3 2 2 2 3 2 1 2 1 0 -0 2 3 3 3 3 2 1 1 1 1 1 1 1 1 1 1 1 0 1 1 0 -0 -1 -1 -1 -1 -1 -2 -2 -3 -3 -4 -4 -4 -5 -5 -5 -5 -5 -5 -5 -5 -5 -4 -4 -4 -3 -3 -3 -2 -2 -2 -2 -2 -2 -1 -1 -1 -1 -0 0
8 11 9 8 7 7 7 8 9 9 8 7 8 6 4 2 1 2 1 1 1 1 0 1 1 1 2 2 2 2 1 1 1 1 1 1 1 1 0 0 0 0 0 0 -0 -0 -1 -1 -1 -1 -2 -2 -2 -2 -3 -4 -4 -4 -5 -5 -5 -5 -6 -6 -6 -6 -6 -6 -5 -5 -5 -4 -3 -3 -3 -2 -2 -2 -2 -2 -2 -2 -1 -1 -0 -0
8 10 7 6 6 7 7 8 8 9 8 7 7 6 4 3 1 1 0 1 1 -0 -1 1 2 0 0 1 1 1 1 0 0 0 0 0 0 -0 -0 -0 -0 -0 -0 -0 -1 -1 -1 -1 -2 -2 -2 -2 -2 -3 -4 -4 -5 -5 -5 -6 -6 -6 -6 -6 -7 -7 -7 -7 -6 -6 -5 -5 -4 -4 -4 -4 -3 -3 -3 -3 -2 -2 -1 -1 -1 -1
7 8 6 5 5 6 7 8 9 8 7 7 6 5 5 4 2 1 1 1 1 0 -0 1 1 0 0 1 1 1 0 0 0 0 0 -0 -1 -1 -1 -1 -1 -1 -1 -1 -1 -1 -1 -2 -2 -2 -2 -2 -3 -4 -5 -5 -5 -5 -6 -6 -6 -6 -6 -7 -7 -7 -7 -7 -7 -6 -6 -6 -5 -5 -5 -5 -4 -4 -4 -3 -3 -2 -2 -1 -1 -1
6 8 6 4 4 6 7 8 8 7 7 7 6 4 4 4 3 2 2 2 2 1 1 1 0 0 1 1 1 1 0 0 0 -0 -1 -1 -1 -1 -1 -2 -2 -2 -2 -1 -1 -2 -2 -2 -3 -3 -2 -3 -4 -5 -5 -6 -6 -6 -6 -7 -7 -7 -8 -8 -8 -8 -8 -7 -7 -6 -6 -6 -6 -6 -6 -6 -5 -5 -4 -4 -4 -3 -2 -2 -2 -2
6 7 6 4 4 6 8 8 7 7 7 6 5 4 4 3 3 2 2 2 1 0 1 1 -0 -0 1 1 1 0 0 -0 -1 -1 -2 -2 -2 -2 -2 -2 -2 -2 -2 -2 -2 -2 -2 -3 -3 -3 -3 -4 -5 -6 -6 -6 -7 -7 -7 -7 -7 -8 -8 -8 -8 -8 -8 -8 -7 -7 -7 -6 -6 -6 -6 -6 -6 -5 -5 -5 -4 -4 -3 -3 -3 -3
5 6 6 4 4 6 8 7 6 7 6 4 4 4 3 2 2 2 2 2 1 0 -0 -1 -1 -1 0 1 -0 -1 -1 -1 -2 -2 -3 -2 -2 -2 -2 -2 -3 -2 -2 -2 -3 -3 -3 -3 -3 -4 -5 -6 -6 -7 -7 -7 -7 -7 -8 -8 -8 -9 -9 -9 -9 -8 -8 -8 -7 -7 -7 -7 -6 -6 -6 -6 -6 -6 -6 -5 -5 -4 -4 -4 -4 -3
4 5 5 4 3 5 7 6 6 6 5 4 3 3 2 2 2 2 2 1 1 1 -1 -1 -1 -1 -0 -0 -1 -2 -2 -2 -3 -3 -3 -3 -3 -2 -2 -2 -2 -3 -3 -3 -3 -3 -4 -4 -4 -5 -6 -7 -7 -8 -8 -8 -8 -8 -8 -9 -10 -9 -9 -9 -9 -9 -9 -8 -8 -8 -7 -7 -7 -7 -7 -7 -7 -6 -6 -6 -5 -5 -5 -5 -4 -3
4 4 5 4 2 4 5 5 6 6 5 4 4 3 2 2 1 1 1 1 1 1 -0 -0 -0 -0 -1 -1 -2 -2 -2 -3 -3 -3 -3 -3 -3 -3 -2 -3 -3 -3 -3 -4 -4 -4 -4 -4 -5 -7 -7 -8 -8 -8 -8 -8 -9 -9 -10 -10 -11 -10 -10 -10 -10 -10 -9 -9 -9 -8 -8 -8 -8 -8 -8 -8 -8 -7 -7 -6 -6 -6 -5 -5 -4 -3
4 4 4 4 3 4 4 4 4 4 4 4 3 3 2 2 2 1 0 0 0 0 0 -0 -1 -1 -2 -2 -2 -3 -3 -3 -3 -3 -3 -2 -2 -3 -3 -3 -4 -4 -4 -4 -4 -4 -5 -6 -7 -8 -8 -9 -9 -9 -9 -9 -10 -10 -11 -11 -11 -11 -10 -10 -11 -10 -10 -9 -9 -9 -9 -8 -8 -8 -8 -8 -8 -8 -7 -6 -6 -6 -5 -4 -4 -3
4 4 4 4 3 3 3 2 2 3 5 5 3 2 2 1 1 0 -1 -0 0 0 -0 -1 -2 -2 -2 -2 -3 -3 -3 -3 -3 -3 -3 -2 -2 -3 -4 -4 -4 -5 -5 -5 -5 -5 -6 -8 -9 -9 -9 -9 -9 -10 -10 -10 -11 -11 -12 -12 -12 -11 -11 -11 -11 -11 -10 -10 -10 -10 -10 -9 -9 -9 -9 -9 -9 -9 -8 -7 -6 -5 -5 -4 -3 -2
4 4 4 4 3 3 2 2 2 3 4 4 2 2 2 1 0 -1 -2 -1 0 0 -1 -2 -2 -2 -3 -3 -3 -3 -3 -4 -5 -4 -3 -3 -3 -4 -4 -5 -5 -5 -5 -5 -5 -6 -8 -9 -9 -10 -10 -10 -10 -11 -11 -11 -11 -12 -12 -13 -13 -12 -12 -12 -12 -11 -11 -11 -11 -11 -11 -10 -10 -10 -10 -10 -10 -9 -9 -7 -6 -5 -5 -4 -3 -2
3 4 3 2 3 3 1 1 2 2 3 2 1 1 2 1 1 -0 -2 -2 -0 -0 -1 -2 -3 -3 -3 -4 -4 -4 -4 -5 -6 -5 -4 -3 -4 -5 -5 -5 -5 -5 -5 -5 -6 -8 -9 -10 -10 -10 -10 -11 -11 -12 -12 -12 -12 -13 -13 -13 -13 -13 -13 -12 -12 -11 -11 -11 -12 -12 -11 -11 -11 -11 -11 -11 -11 -10 -9 -8 -6 -5 -5 -4 -3 -2
3 3 3 3 3 3 1 0 0 0 1 1 1 1 2 1 0 -0 -2 -2 -1 -1 -2 -2 -3 -4 -4 -4 -4 -5 -6 -7 -7 -6 -4 -4 -5 -5 -6 -6 -6 -6 -6 -6 -8 -9 -10 -10 -11 -11 -11 -12 -12 -12 -12 -13 -13 -13 -14 -14 -14 -14 -13 -13 -12 -12 -12 -12 -12 -12 -12 -12 -12 -12 -12 -12 -11 -10 -10 -8 -7 -6 -4 -3 -2 -2
3 3 3 3 3 2 1 1 1 1 1 1 1 1 1 1 0 -2 -4 -4 -2 -2 -2 -3 -3 -4 -4 -4 -5 -5 -6 -7 -7 -6 -5 -5 -5 -6 -6 -6 -6 -6 -7 -8 -9 -10 -10 -11 -11 -12 -12 -13 -13 -13 -13 -13 -14 -14 -14 -14 -14 -14 -14 -13 -13 -13 -13 -13 -13 -13 -12 -12 -12 -12 -12 -12 -12 -11 -10 -9 -7 -6 -4 -3 -3 -2
3 2 2 3 2 2 1 0 1 1 1 1 1 1 1 0 -1 -4 -5 -4 -2 -2 -3 -3 -4 -4 -4 -4 -5 -5 -6 -6 -5 -6 -5 -6 -6 -6 -6 -7 -7 -7 -8 -9 -10 -11 -11 -11 -12 -12 -13 -14 -13 -13 -14 -14 -14 -14 -14 -15 -14 -14 -14 -14 -14 -13 -13 -13 -13 -13 -13 -13 -13 -13 -13 -13 -12 -11 -10 -9 -7 -5 -4 -3 -3 -3
2 2 3 3 2 1 1 0 0 1 2 2 2 1 1 -2 -4 -4 -3 -2 -2 -3 -3 -3 -4 -4 -4 -4 -5 -5 -5 -5 -5 -6 -6 -6 -7 -7 -7 -7 -7 -8 -9 -9 -11 -11 -12 -12 -13 -13 -14 -14 -14 -14 -14 -15 -15 -15 -15 -15 -15 -14 -15 -14 -14 -14 -14 -14 -14 -14 -14 -14 -14 -14 -13 -13 -12 -11 -9 -8 -6 -4 -3 -3 -3 -3
2 1 2 3 1 0 1 -0 -2 -1 2 2 1 0 -1 -2 -3 -3 -2 -2 -3 -3 -3 -3 -4 -4 -4 -5 -5 -5 -5 -6 -6 -6 -7 -7 -7 -7 -7 -8 -8 -9 -9 -10 -11 -12 -13 -13 -14 -14 -14 -14 -14 -15 -15 -15 -15 -15 -15 -15 -15 -15 -15 -15 -14 -15 -15 -15 -15 -15 -15 -14 -14 -14 -14 -13 -11 -10 -8 -7 -5 -3 -3 -3 -3 -3
1 1 1 2 0 -1 -1 -1 -1 0 2 2 0 -1 -1 -1 -1 -1 -2 -3 -3 -3 -3 -4 -4 -4 -4 -5 -5 -6 -6 -6 -7 -7 -7 -7 -7 -8 -8 -8 -9 -10 -11 -11 -12 -13 -14 -14 -14 -14 -14 -15 -15 -15 -15 -15 -15 -15 -15 -15 -15 -15 -15 -15 -15 -15 -15 -16 -15 -15 -15 -15 -15 -14 -14 -12 -11 -9 -8 -6 -4 -3 -3 -3 -3 -2
2 2 2 1 0 -0 -0 0 2 2 2 2 1 -0 -0 -1 -1 -2 -3 -3 -3 -3 -3 -4 -4 -4 -4 -5 -5 -6 -6 -7 -7 -7 -7 -7 -8 -8 -8 -9 -10 -11 -12 -13 -13 -14 -14 -15 -15 -15 -15 -15 -15 -16 -16 -16 -15 -15 -15 -15 -16 -16 -15 -15 -16 -16 -16 -16 -16 -16 -16 -15 -15 -14 -13 -12 -11 -9 -8 -7 -5 -4 -3 -3 -3 -2
3 3 2 1 1 1 2 3 3 2 2 1 0 -0 -0 -1 -1 -2 -3 -3 -3 -3 -3 -4 -4 -4 -4 -5 -6 -6 -6 -7 -7 -7 -7 -8 -8 -8 -9 -10 -11 -12 -12 -13 -14 -14 -15 -15 -15 -15 -15 -15 -16 -16 -16 -16 -16 -16 -16 -16 -16 -16 -16 -16 -16 -16 -16 -16 -16 -16 -16 -15 -15 -14 -13 -12 -11 -10 -9 -8 -7 -5 -4 -3 -3 -2
2 2 1 1 1 1 1 2 3 1 1 0 -0 -0 -0 -1 -2 -2 -3 -3 -3 -3 -3 -4 -4 -4 -5 -5 -6 -6 -6 -7 -7 -7 -8 -8 -9 -9 -10 -11 -12 -13 -13 -14 -14 -15 -15 -15 -15 -16 -16 -16 -16 -16 -16 -16 -16 -16 -16 -16 -16 -16 -16 -16 -17 -17 -17 -16 -16 -16 -16 -15 -15 -14 -13 -12 -12 -11 -10 -9 -8 -7 -6 -4 -3 -3
1 1 1 1 1 0 1 2 2 1 0 -0 -1 -1 -1 -2 -2 -2 -3 -3 -3 -3 -3 -4 -4 -4 -5 -5 -6 -6 -7 -7 -7 -8 -8 -9 -9 -10 -10 -11 -12 -13 -14 -14 -15 -15 -15 -16 -16 -16 -16 -16 -16 -16 -16 -16 -16 -16 -16 -16 -16 -16 -16 -17 -17 -17 -17 -17 -16 -16 -16 -15 -15 -14 -14 -13 -12 -11 -11 -10 -9 -8 -7 -5 -4 -4
1 1 1 0 0 0 1 2 1 -1 -1 -0 -0 -1 -2 -2 -2 -3 -3 -3 -3 -4 -4 -4 -4 -4 -5 -5 -5 -6 -7 -7 -7 -8 -8 -9 -9 -10 -11 -12 -12 -13 -14 -15 -15 -15 -16 -16 -16 -16 -16 -16 -16 -16 -16 -16 -17 -17 -17 -17 -16 -17 -17 -17 -17 -17 -17 -17 -16 -16 -16 -16 -15 -15 -14 -13 -13 -12 -12 -11 -10 -9 -8 -6 -5 -5
1 1 1 -0 -1 -1 0 1 -0 -2 -2 -2 -1 -2 -2 -2 -3 -3 -3 -3 -4 -4 -4 -5 -5 -5 -5 -5 -6 -6 -7 -8 -8 -8 -8 -9 -10 -10 -11 -12 -13 -14 -14 -15 -15 -16 -16 -16 -16 -17 -17 -17 -17 -17 -17 -17 -17 -17 -17 -17 -17 -17 -17 -17 -17 -17 -17 -16 -16 -16 -16 -16 -15 -15 -14 -14 -13 -13 -13 -12 -11 -9 -8 -6 -5 -5
0 0 -0 -1 -1 -1 -0 0 -1 -2 -2 -2 -2 -2 -3 -3 -3 -4 -4 -4 -4 -4 -4 -5 -6 -6 -6 -6 -6 -7 -7 -8 -8 -8 -9 -9 -10 -11 -12 -12 -13 -14 -15 -15 -16 -16 -16 -17 -17 -17 -17 -17 -17 -17 -17 -17 -17 -17 -17 -17 -17 -17 -17 -17 -17 -17 -16 -16 -16 -16 -16 -16 -15 -15 -15 -14 -14 -13 -13 -12 -11 -9 -8 -7 -6 -6
Height
791 799 807 812 816 815 815 817 816 816 815 815 814 810 806 800 792 785 781 781 787 789 782 776 774 775 785 796 801 805 806 806 807 808 809 810 810 810 810 810 809 808 808 808 807 806 805 804 802 799 797 795 793 791 789 786 784 782 779 778 776 775 774 772 770 769 768 766 764 761 759 757 755 754 752 750 749 748 746 745 742 740 738 738 738 738
795 809 819 819 818 817 817 818 817 816 815 815 811 805 800 796 792 786 783 783 785 790 783 773 773 772 777 791 798 802 803 803 805 807 809 810 809 809 809 809 808 807 807 806 806 805 804 803 800 798 795 793 791 789 787 785 783 781 778 777 775 774 773 772 770 769 767 766 764 762 759 756 754 752 751 749 748 747 746 745 743 741 738 737 736 736
802 815 820 819 819 818 817 817 816 813 811 810 804 801 801 798 795 787 782 784 786 789 783 773 774 769 769 786 796 798 799 801 805 807 809 810 809 809 808 807 807 807 807 806 806 804 803 803 800 796 793 791 790 788 786 783 781 779 777 775 774 772 772 770 770 769 767 766 764 762 759 756 753 751 749 747 746 745 744 743 742 741 739 737 735 734
812 818 820 821 822 818 815 813 813 810 805 802 801 805 808 803 803 796 784 783 784 784 780 776 780 770 768 786 795 795 798 801 806 808 808 808 808 808 807 806 807 807 805 805 804 800 798 800 798 795 792 789 788 786 784 781 779 777 775 774 772 771 770 768 768 767 766 765 763 761 758 755 752 750 747 745 743 742 741 740 739 739 738 736 734 732
818 821 822 823 823 818 814 811 814 817 807 801 804 811 812 806 806 801 788 784 779 775 776 780 779 764 766 786 791 793 800 801 805 805 805 807 806 807 806 805 806 805 803 803 801 797 796 797 796 793 791 788 786 784 782 780 778 776 773 772 771 769 768 766 765 764 763 762 761 759 757 755 752 749 746 744 741 739 739 738 737 736 736 734 733 732
818 824 825 823 819 814 813 813 818 823 813 805 808 811 811 806 803 797 790 788 781 774 775 782 780 762 761 776 781 789 799 799 802 803 804 805 805 806 805 805 805 803 802 802 800 798 797 797 794 791 788 785 783 782 780 778 776 774 772 770 768 766 765 764 762 761 760 758 757 756 755 753 751 748 746 743 741 739 738 737 736 735 734 732 731 729
819 823 824 821 816 813 814 816 818 823 818 809 807 809 809 806 802 795 791 792 786 777 773 777 783 770 759 761 769 784 794 795 799 802 803 805 805 806 805 805 804 802 801 800 798 798 796 794 792 788 785 783 781 780 779 777 774 772 769 767 766 764 763 762 760 759 758 756 754 754 752 751 749 747 744 743 741 739 737 736 735 734 733 731 729 727
822 820 821 819 814 814 818 819 817 821 823 812 805 808 807 802 800 793 792 793 783 776 770 767 777 777 761 755 764 781 789 792 798 800 802 806 806 806 806 805 804 802 800 798 796 795 794 792 790 786 783 781 779 777 776 775 772 770 767 764 763 762 761 760 759 757 756 754 752 751 749 747 746 744 742 741 739 738 737 735 733 732 731 729 728 726
826 824 826 823 817 820 823 821 818 821 823 811 805 808 805 801 798 790 791 790 779 780 775 763 771 777 764 756 766 782 786 788 796 800 803 806 806 806 806 805 804 801 799 797 796 794 792 791 788 785 781 779 777 775 774 773 771 767 765 763 762 761 760 758 756 755 753 752 750 748 746 744 742 741 740 738 737 736 734 733 731 730 728 727 726 724
829 829 832 828 824 827 826 821 818 820 820 811 807 807 801 796 789 785 790 787 781 785 778 765 768 775 767 754 756 773 782 786 797 802 803 806 806 806 805 804 802 800 799 798 796 794 792 790 787 783 779 776 774 773 772 771 768 766 764 763 761 760 758 756 754 752 751 749 748 746 744 741 739 738 736 735 734 732 731 730 728 727 726 724 723 722
831 834 835 831 829 830 827 821 818 820 819 812 807 803 798 789 779 780 784 781 783 783 773 768 768 776 777 759 756 779 793 799 806 806 805 806 806 804 804 804 801 799 798 796 794 793 790 788 784 781 777 773 771 771 770 768 766 765 763 761 760 757 755 753 751 750 748 746 745 743 741 739 737 735 733 732 730 729 728 726 725 723 722 721 720 719
826 830 830 832 833 830 827 820 817 820 817 812 810 804 800 792 781 782 780 780 789 785 773 770 769 778 778 763 774 800 807 808 811 810 810 809 806 804 803 803 800 799 798 795 792 790 786 782 779 777 775 772 771 770 768 766 765 763 762 760 757 754 752 751 749 747 745 744 742 740 739 737 735 733 730 728 727 725 724 722 721 720 719 718 716 715
819 824 826 833 835 830 828 822 817 818 814 812 814 811 812 807 801 803 797 793 797 787 777 775 778 784 774 767 788 804 803 807 810 810 811 809 806 804 803 803 800 797 794 791 790 787 783 779 776 775 774 771 770 768 766 764 763 761 760 758 755 752 750 748 747 745 743 741 739 737 736 733 732 730 727 725 723 722 721 719 718 717 716 715 713 712
823 823 823 830 832 829 830 828 825 823 818 818 820 820 825 829 834 835 818 808 806 791 781 781 787 787 772 774 796 802 802 808 808 808 809 806 806 804 802 801 796 792 789 789 788 785 781 779 777 775 774 771 769 767 765 763 761 760 758 755 753 750 748 747 744 742 740 738 737 735 733 731 729 726 724 722 720 719 718 716 715 714 713 712 711 709
836 831 826 828 829 828 830 833 835 830 823 824 822 823 831 838 849 847 829 823 821 805 791 788 789 783 776 785 798 800 804 805 803 805 805 804 804 801 798 794 790 789 788 788 787 784 781 779 778 776 773 771 769 766 764 761 760 759 757 753 751 748 746 745 742 740 737 735 733 731 729 727 725 724 721 719 717 716 714 713 712 711 710 709 708 707
842 832 825 827 829 829 831 835 836 832 827 824 819 823 835 839 842 841 830 826 825 815 802 792 785 777 780 793 799 800 803 801 800 801 799 799 800 799 797 793 791 791 789 787 786 783 782 779 777 775 772 770 767 765 762 760 760 759 755 752 749 746 744 743 740 738 735 733 730 728 726 724 722 720 718 716 714 713 712 710 709 708 707 706 705 704
848 834 823 827 830 830 833 834 835 836 834 829 826 832 839 837 837 841 835 823 822 822 808 795 790 783 784 794 800 802 799 795 795 795 796 799 799 800 798 794 793 791 789 787 785 782 781 778 776 773 771 768 766 764 762 761 760 757 753 750 747 745 743 740 738 735 733 730 727 725 722 720 718 716 714 712 710 709 708 707 706 704 703 702 701 700
861 847 826 826 829 831 835 836 835 838 836 834 839 844 841 835 835 842 843 834 835 835 817 804 804 801 797 796 797 799 796 793 794 795 799 800 799 800 797 794 794 791 789 787 784 782 779 776 774 771 769 767 765 765 763 760 758 754 751 748 746 745 741 738 736 733 730 728 725 722 719 717 715 713 710 708 707 705 704 703 702 701 700 699 698 697
866 855 831 826 830 830 833 835 835 837 837 838 844 847 848 851 849 849 853 854 854 848 829 816 813 808 801 796 795 798 796 796 798 798 801 801 800 800 796 794 793 790 788 785 782 781 777 774 773 769 767 766 764 764 761 757 755 751 749 746 745 743 739 736 734 731 728 725 722 719 716 715 712 709 707 705 703 702 701 699 698 697 696 695 694 693
865 858 840 830 827 824 823 828 833 836 838 839 840 843 850 858 860 859 859 859 862 855 840 831 823 808 799 797 801 802 798 799 801 800 803 803 801 801 797 794 791 787 785 782 779 779 776 774 771 768 767 765 764 762 758 755 753 750 748 745 743 741 737 734 732 729 726 722 719 716 713 712 709 706 704 702 701 699 697 696 694 693 692 691 690 689
862 857 847 832 824 822 825 832 838 839 842 843 845 851 857 861 860 860 856 852 860 863 854 849 835 810 801 803 802 802 801 803 805 803 804 804 802 801 798 794 790 786 784 781 778 776 774 772 769 767 767 765 763 760 756 754 751 748 747 743 741 739 735 732 729 726 722 718 715 713 710 709 706 704 702 699 698 696 693 692 690 689 688 686 686 685
866 858 852 841 830 827 831 840 844 845 848 849 851 857 864 868 868 868 864 854 860 867 861 860 847 815 802 804 801 803 806 806 808 807 806 806 804 801 797 793 789 786 784 780 777 775 772 770 768 767 766 763 760 757 754 753 750 747 745 742 739 736 732 729 726 723 719 716 713 711 708 707 704 701 699 696 694 692 690 689 687 686 685 683 682 681
878 868 857 846 836 832 840 848 848 850 854 854 856 860 863 869 874 878 877 865 865 867 860 861 850 813 798 804 805 808 811 809 811 811 808 807 804 799 795 791 789 785 782 779 775 773 771 770 768 766 763 760 757 755 753 751 748 746 744 741 737 734 731 728 724 721 718 715 712 709 707 704 701 698 695 692 691 689 687 685 684 682 681 679 678 677
880 867 855 846 836 834 844 852 851 854 856 850 852 861 866 872 877 880 877 871 873 872 863 866 852 812 798 809 811 811 813 812 813 812 810 807 801 797 793 789 786 783 779 777 773 771 770 769 767 763 759 757 754 752 750 748 747 745 743 740 738 735 731 728 724 721 717 713 710 707 703 700 697 695 692 689 687 685 684 682 680 679 677 676 674 673
877 860 856 859 854 847 845 848 849 851 851 846 849 864 874 878 881 880 875 873 876 870 865 873 856 815 803 813 814 814 816 815 815 814 811 806 799 795 791 787 785 781 777 774 771 768 768 767 764 761 758 755 752 749 747 746 745 744 741 740 738 735 731 727 724 719 715 711 706 702 699 696 693 690 687 686 683 681 680 679 677 676 674 672 671 669
880 862 863 875 879 874 865 860 856 852 852 850 850 863 877 882 884 880 876 877 875 867 867 874 857 820 809 817 818 816 816 815 816 813 809 805 799 794 790 786 783 779 776 773 768 766 766 764 762 760 757 754 751 748 746 745 744 742 740 738 735 732 728 725 722 717 712 707 700 696 693 691 688 685 682 681 679 678 676 675 673 672 670 668 666 664
880 865 871 881 885 884 876 867 861 856 859 859 855 861 874 885 887 884 883 881 875 870 865 860 850 830 818 820 821 818 817 816 814 810 806 801 797 795 791 787 783 779 776 772 768 766 764 762 760 757 755 752 749 747 745 743 741 740 738 735 732 729 725 720 718 714 708 702 696 692 689 686 683 681 678 676 675 673 672 670 669 667 665 663 661 660
879 870 881 890 887 883 875 867 861 859 861 861 860 863 870 879 885 888 889 883 876 877 863 843 841 838 824 819 822 821 819 817 813 809 806 800 796 795 791 786 782 778 774 771 767 765 762 759 757 754 752 749 746 744 743 741 739 737 735 733 729 725 721 717 714 709 704 699 694 690 686 683 680 678 676 674 672 670 668 666 664 661 659 658 656 655
885 877 887 896 890 882 873 864 859 860 861 859 862 867 868 872 879 883 883 878 877 880 866 844 841 840 828 821 822 822 822 819 814 810 806 802 798 794 790 785 781 777 773 769 764 762 760 757 755 751 748 745 743 741 740 737 735 733 731 729 725 721 718 716 711 706 702 698 693 689 685 681 678 676 674 672 669 667 664 662 660 657 655 653 652 651
890 880 888 898 892 880 869 861 860 861 860 858 863 871 871 871 875 876 874 872 872 871 864 854 848 841 833 829 825 824 825 822 817 812 807 803 797 792 788 784 779 775 771 766 762 759 758 755 752 749 745 742 741 739 737 734 731 728 726 723 721 718 716 713 708 704 700 695 690 686 682 679 677 674 672 669 666 664 661 659 656 653 651 650 648 647
889 884 889 897 893 877 863 860 862 860 859 860 864 870 872 872 874 875 873 869 867 864 857 854 850 841 834 831 828 827 826 822 818 815 809 801 794 790 787 782 777 774 768 764 761 758 755 752 748 745 742 741 741 738 735 732 729 726 723 719 717 716 713 709 704 700 696 692 687 684 680 677 674 671 668 666 663 660 658 655 653 650 648 646 645 644
894 890 889 894 896 878 862 863 863 857 861 868 870 872 875 876 876 876 875 872 870 865 856 852 850 840 831 828 828 828 827 824 822 819 813 804 795 788 784 779 775 771 766 763 759 755 752 749 745 742 741 741 740 738 735 731 726 723 719 717 715 713 709 705 701 696 693 689 685 682 678 675 671 668 665 663 660 657 654 652 649 646 644 642 641 639
900 897 891 896 899 879 866 870 865 855 860 869 872 876 880 880 877 873 872 872 870 867 862 858 852 841 834 831 828 826 826 827 824 819 814 808 797 787 782 778 772 768 765 761 757 753 750 746 743 742 742 741 739 737 735 730 726 722 718 716 714 710 706 702 697 694 690 687 683 680 676 672 669 666 663 660 658 655 651 648 645 643 641 638 636 634
901 900 894 900 903 886 873 872 863 857 864 870 872 878 881 881 878 874 872 871 867 865 864 859 851 846 843 839 833 827 825 826 825 819 813 807 799 789 782 778 774 769 764 759 755 752 747 744 744 744 742 741 739 736 733 729 725 722 720 717 713 708 704 699 695 693 689 685 681 677 674 670 667 664 661 658 655 651 648 644 642 639 637 634 631 629
901 899 896 899 901 889 877 876 874 869 868 869 873 878 879 879 879 875 872 871 868 864 861 858 856 852 849 844 838 831 825 823 823 818 810 804 800 792 783 778 775 771 765 759 755 750 747 745 744 743 741 740 737 733 730 727 724 721 719 716 712 706 702 698 695 692 688 683 679 676 672 668 665 662 659 655 652 648 644 641 638 635 632 629 627 624
902 901 897 895 896 891 887 891 890 876 862 864 875 879 878 879 880 877 872 869 868 864 861 861 860 855 851 846 839 832 824 819 818 814 809 803 799 795 789 781 776 772 767 762 756 750 748 747 745 743 740 737 735 731 728 726 723 720 717 714 711 705 700 698 694 690 685 681 678 674 671 667 664 660 657 653 649 645 641 637 634 631 629 626 623 621
902 900 898 897 896 898 900 897 887 874 864 869 880 882 880 881 882 880 876 868 864 863 864 863 860 855 853 847 839 832 824 815 809 805 803 801 797 795 793 787 780 774 768 763 757 753 751 749 746 743 739 735 734 732 728 725 722 718 715 712 709 705 700 697 692 687 683 680 677 674 670 666 663 658 654 650 646 642 638 634 631 628 626 623 620 618
903 901 903 903 896 896 902 899 890 884 876 875 881 882 880 881 881 881 878 868 861 863 865 863 860 856 852 847 841 835 827 817 806 795 791 793 793 791 788 785 781 776 769 762 757 753 752 749 746 743 739 735 734 733 728 724 721 717 714 711 707 703 699 695 690 686 682 679 676 672 668 665 661 656 651 647 643 639 635 632 628 625 623 620 618 615
904 901 902 902 895 896 904 905 901 895 883 879 882 880 878 880 879 878 877 868 862 865 867 863 861 858 853 848 842 837 833 826 811 793 785 787 788 787 784 779 776 773 768 763 759 756 752 748 744 741 738 736 733 730 726 723 720 717 713 709 705 701 697 693 689 685 682 678 675 671 667 663 658 654 650 645 640 636 633 629 626 623 620 618 615 614
903 901 901 901 898 898 904 905 900 893 884 881 882 879 878 878 876 879 881 872 864 866 867 864 863 860 854 850 845 840 839 834 819 801 792 790 788 787 785 779 774 769 765 761 759 756 752 748 744 739 736 735 732 727 724 722 720 716 711 708 704 700 696 692 688 684 681 677 673 669 665 661 656 652 647 642 637 633 630 626 623 620 617 616 614 612
901 904 902 899 899 901 905 906 898 888 883 881 880 879 878 877 878 887 889 877 867 868 868 865 863 859 854 851 847 842 838 834 824 812 803 798 792 786 783 780 775 770 766 762 759 756 751 748 745 740 738 735 730 726 724 722 718 714 710 706 703 699 695 691 687 683 679 675 671 667 663 659 654 649 644 639 635 630 626 623 620 617 616 614 613 611
904 907 900 896 902 905 902 904 901 889 881 880 879 879 880 885 890 891 884 876 872 870 867 865 862 858 853 850 847 841 835 829 823 816 808 802 795 786 781 776 771 767 765 762 759 756 751 747 743 740 737 735 730 726 724 721 717 712 709 705 701 697 693 690 685 682 678 674 669 665 660 656 651 646 641 636 631 627 623 620 617 615 614 612 610 608
910 911 901 898 909 910 901 908 915 900 881 877 881 882 885 891 893 886 878 877 876 871 867 864 860 856 852 848 844 838 831 825 820 814 808 802 795 788 782 775 770 766 763 760 757 755 752 747 742 738 736 733 730 727 724 720 715 711 707 703 700 696 692 688 684 680 677 673 668 663 658 653 648 644 639 633 629 626 621 617 614 613 611 610 608 606
913 914 908 904 912 916 912 912 911 895 880 881 887 889 888 888 887 884 882 879 874 870 867 863 858 855 851 845 840 835 829 822 817 811 805 799 792 786 780 775 770 766 763 760 757 754 751 747 741 737 735 732 729 726 723 718 713 709 705 702 698 695 691 687 683 680 675 671 666 661 656 651 646 641 637 632 628 624 620 615 612 610 608 607 605 603
909 909 910 909 911 913 910 900 890 884 882 885 888 888 887 886 884 884 883 879 874 871 867 862 857 854 849 844 839 833 827 821 815 809 803 797 790 785 779 774 771 767 763 760 757 753 751 746 741 737 734 731 728 725 721 717 712 707 704 700 697 693 689 685 682 678 674 669 665 660 654 649 644 640 635 631 628 624 620 615 612 609 607 604 602 600
905 905 909 910 906 902 896 888 884 885 885 886 888 888 886 885 884 883 882 877 873 870 866 862 857 852 847 843 837 831 826 820 813 807 801 795 789 784 779 774 771 768 763 759 755 752 749 745 741 737 733 729 726 723 719 715 711 706 702 699 695 692 688 685 681 677 672 668 663 658 653 647 642 638 634 631 627 624 621 617 613 610 607 604 601 599
906 909 910 909 905 902 895 885 884 887 885 886 887 885 884 884 883 882 880 875 871 868 864 861 856 851 846 842 836 829 824 819 812 805 799 794 788 783 779 774 770 767 764 759 754 751 747 743 739 736 732 727 724 721 717 713 710 705 701 698 694 690 687 684 680 675 671 666 661 657 652 647 642 638 633 630 627 623 620 617 614 612 608 604 602 600
910 911 910 906 904 903 895 885 884 887 886 886 886 883 883 882 879 879 877 873 869 866 862 859 855 850 845 839 834 828 822 817 812 805 798 793 787 782 779 775 770 767 763 759 755 750 746 743 739 735 731 727 722 719 715 711 707 704 700 696 693 689 686 682 678 673 669 664 660 656 652 647 643 638 634 630 627 623 620 616 614 611 608 605 603 601
911 909 908 907 904 899 891 885 886 887 883 882 883 883 882 881 878 876 874 871 868 864 859 855 852 848 844 838 833 827 821 815 811 806 799 793 787 782 778 774 770 766 762 758 754 750 746 742 738 734 731 726 721 717 713 709 706 702 699 695 692 688 684 680 676 671 667 663 659 654 651 647 643 639 635 630 626 623 620 618 615 612 608 605 603 602
911 908 908 911 908 901 894 890 892 892 886 882 882 882 881 880 878 874 871 868 866 862 857 852 847 844 841 837 832 827 820 813 809 804 799 793 788 782 777 771 767 764 760 757 753 749 746 742 738 734 730 725 720 716 712 708 704 701 698 694 690 687 684 679 674 669 665 661 657 653 650 646 642 639 636 631 626 621 617 614 613 612 608 604 602 601
912 911 912 914 910 904 897 894 895 895 890 884 882 882 880 878 876 873 870 866 863 859 856 852 846 841 836 833 830 826 820 812 807 802 796 791 787 782 777 772 767 762 758 755 751 747 744 741 737 733 728 723 719 715 711 707 703 699 696 693 689 686 683 678 674 669 664 660 657 653 649 646 642 639 636 632 629 625 619 613 609 608 607 605 602 599
Wind_Speed
3 7 9 7 7 8 7 5 4 5 6 7 8 7 7 9 8 12 14 4 4 6 10 11 12 9 9 11 9 9 8 7 6 4 3 1 3 3 5 6 7 8 8 11 14 15 16 18 21 22 22 23 24 23 22 20 18 17 17 16 16 16 16 17 16 16 17 17 17 17 16 16 15 15 15 16 16 12 10 8 7 6 7 9 12 15
4 8 7 6 5 6 5 4 5 6 7 6 6 6 7 8 10 15 14 2 2 5 10 15 13 11 9 11 10 10 9 8 6 4 3 2 3 3 6 7 8 8 8 11 14 16 18 21 24 24 24 25 25 25 24 22 20 20 18 16 16 15 16 16 16 16 17 17 17 18 18 17 16 15 14 15 16 16 13 11 11 9 7 7 9 12
5 8 6 5 4 6 4 3 6 8 7 6 5 6 7 9 11 14 9 1 1 3 10 15 12 12 8 11 11 10 9 6 6 3 2 2 3 5 7 8 9 11 11 12 14 17 21 24 25 25 26 27 26 26 25 23 22 21 18 17 16 16 16 16 16 17 18 19 19 19 19 19 18 17 16 15 17 19 16 13 14 13 11 9 9 10
5 6 6 4 4 7 4 3 9 10 7 5 5 6 7 10 10 10 9 8 9 9 13 13 11 11 6 10 9 9 8 6 6 4 2 1 4 6 7 8 10 12 13 14 16 19 23 25 25 26 29 29 27 25 25 25 23 21 19 18 18 17 17 17 17 19 20 21 21 19 19 19 19 18 18 17 17 18 17 14 14 14 14 13 10 10
6 4 4 4 5 6 6 6 10 9 8 5 3 6 9 12 13 13 15 15 14 11 11 9 10 8 7 11 9 8 8 7 7 5 3 1 4 6 8 9 10 13 15 16 18 21 23 25 25 26 28 28 26 26 25 25 24 22 20 19 19 19 20 20 21 23 22 22 22 21 19 19 19 18 17 17 16 15 16 15 14 14 15 15 13 13
6 3 2 5 4 5 8 8 8 7 9 4 3 8 13 15 18 19 18 14 10 6 3 3 8 6 6 13 11 9 9 9 8 5 2 3 5 7 9 9 11 13 14 15 17 18 20 24 26 27 29 28 26 25 26 26 24 23 22 21 21 22 23 23 24 25 24 23 23 22 21 19 18 18 17 17 17 17 17 18 17 16 16 16 15 14
4 1 2 5 5 9 11 8 7 7 8 5 4 10 14 16 18 20 17 11 7 7 2 4 6 8 4 8 10 11 11 10 8 5 1 4 7 9 10 10 12 14 14 14 16 18 19 23 27 29 30 29 27 26 27 27 25 23 23 24 24 24 24 24 24 25 25 25 24 23 23 22 20 19 19 19 19 19 19 19 19 19 18 17 16 15
4 5 4 5 6 10 10 9 10 8 6 6 8 13 16 17 19 19 14 9 7 9 9 6 6 8 10 3 9 12 10 10 8 3 1 5 9 11 11 12 14 16 16 15 16 17 20 24 29 32 33 30 28 29 28 28 27 25 25 25 24 24 24 24 25 25 25 25 25 25 25 24 22 21 21 21 20 20 20 21 20 20 19 18 18 17
2 5 7 7 7 9 9 11 12 7 5 8 12 14 16 16 18 17 11 9 8 9 7 1 2 8 10 4 8 11 9 10 7 1 3 7 12 12 13 15 17 17 17 17 17 18 21 27 31 33 32 29 28 29 29 28 27 26 25 25 25 25 25 25 25 26 25 25 26 26 26 25 24 22 22 22 20 20 20 21 22 21 20 20 19 18
0 3 4 4 6 7 10 13 11 7 6 10 15 15 15 14 15 13 8 8 8 7 6 8 9 9 10 10 3 7 7 5 3 1 4 8 12 13 14 17 18 16 16 17 18 21 25 30 33 34 33 31 29 29 29 28 27 26 25 25 25 25 26 26 27 27 26 25 25 26 27 27 27 25 23 22 22 21 20 21 22 21 21 20 19 18
2 1 1 1 4 5 10 12 8 6 7 12 14 13 12 11 9 6 6 7 7 6 7 14 18 14 10 10 5 2 2 4 4 4 7 11 13 15 15 16 17 16 16 18 18 22 29 33 35 35 33 32 31 29 28 27 26 25 25 24 25 26 27 28 28 27 27 26 25 26 27 28 28 27 25 23 22 21 20 20 21 21 20 20 19 19
3 3 1 2 2 4 8 10 4 3 8 9 10 11 10 9 5 3 4 5 6 8 11 18 22 17 11 6 4 5 5 6 6 6 10 14 15 15 15 15 16 16 16 18 18 21 27 31 33 34 33 32 31 29 28 28 27 25 24 25 27 28 29 29 28 28 27 26 26 27 27 28 28 27 25 23 23 22 22 21 21 21 20 19 19 19
1 4 4 3 1 3 7 9 4 2 5 7 9 10 9 8 6 5 7 7 7 11 14 20 21 14 9 4 7 7 5 6 6 8 10 15 16 16 16 15 15 15 16 19 20 22 23 24 28 32 32 31 30 29 29 30 27 23 24 26 28 30 30 29 28 28 27 27 27 27 27 27 27 27 26 24 23 22 21 21 20 20 19 19 19 18
2 4 5 2 1 2 6 7 7 7 8 8 8 9 8 8 8 8 8 8 9 13 17 21 18 10 9 4 7 6 5 5 5 8 10 14 16 17 16 15 16 19 21 22 22 24 22 22 27 29 29 30 29 29 31 30 25 22 25 28 30 31 30 29 29 28 28 28 28 28 27 27 27 26 26 25 23 22 21 20 20 20 19 19 20 20
6 2 4 4 2 4 7 4 4 8 7 5 6 5 6 7 6 8 8 9 11 15 18 18 12 9 10 2 6 6 4 2 5 9 12 17 18 18 18 18 20 23 24 24 24 24 23 26 29 28 28 29 29 30 31 28 23 22 27 30 32 33 30 29 29 29 29 28 28 27 27 27 26 26 26 25 24 23 22 21 21 22 21 20 20 20
8 5 4 4 0 4 7 1 2 7 5 6 6 3 5 8 7 8 9 11 14 15 13 10 7 9 7 2 6 4 1 2 7 12 19 23 22 20 19 19 21 23 25 25 24 23 24 28 29 28 28 29 30 31 30 26 23 25 30 32 32 33 31 29 29 29 29 29 28 27 27 27 27 26 25 24 23 23 24 23 23 23 22 21 21 21
5 7 7 4 1 3 5 1 0 4 4 6 6 4 7 10 7 6 10 12 13 13 10 8 9 11 9 1 5 3 3 7 12 17 22 25 26 23 19 19 22 24 26 26 23 21 23 27 29 29 29 30 29 28 28 26 25 28 32 32 31 32 32 30 30 30 29 28 28 28 27 28 27 25 23 22 23 23 24 24 23 23 23 22 22 21
2 8 11 7 2 4 3 3 4 3 4 6 5 6 8 7 3 3 9 10 10 11 9 11 16 15 12 6 1 3 10 14 18 22 24 26 28 25 22 22 25 27 27 26 24 23 22 25 29 30 30 30 25 23 26 26 27 30 31 30 30 32 31 30 29 29 28 28 28 28 26 27 29 27 23 22 23 23 23 23 23 23 23 23 23 22
2 7 5 1 3 3 3 3 2 3 3 4 2 4 5 3 2 5 7 8 11 12 9 13 18 13 9 8 7 12 18 19 22 25 27 30 28 24 23 26 28 29 26 23 23 21 21 25 29 30 31 29 23 22 28 29 30 32 32 31 32 32 31 29 28 28 28 29 28 26 25 26 30 30 27 24 22 23 24 23 24 24 24 24 23 23
2 5 1 1 6 8 2 1 6 4 4 3 2 3 4 2 4 5 6 7 10 13 12 14 16 9 6 11 12 15 20 23 27 28 28 29 28 23 24 26 28 27 24 22 22 20 20 26 30 31 30 27 24 27 32 32 31 32 32 31 31 32 32 31 29 28 29 30 28 27 27 27 28 30 29 25 23 24 24 23 23 24 24 24 23 23
3 4 4 5 9 10 3 4 7 6 5 3 3 5 5 3 4 4 6 5 7 11 12 13 14 9 6 9 11 17 24 27 30 30 27 26 27 26 27 28 27 25 24 23 22 21 21 25 30 30 27 25 27 31 32 31 31 30 30 30 29 30 29 29 29 29 30 30 28 27 27 27 27 29 29 25 23 24 23 23 22 23 23 23 22 22
3 4 6 8 9 8 4 4 3 4 4 5 4 3 3 4 5 6 7 5 5 9 11 12 15 12 6 8 13 20 25 28 30 30 26 25 28 29 29 30 28 26 24 24 23 21 20 23 27 28 27 28 31 31 30 30 29 28 29 29 28 29 28 28 30 31 31 30 27 28 29 30 32 33 29 24 23 23 22 21 21 20 21 22 22 23
3 3 6 7 8 7 5 5 4 4 3 2 3 4 2 3 4 5 8 9 9 11 12 12 15 13 7 10 17 22 26 28 29 27 25 26 29 31 30 30 28 26 25 24 23 21 19 22 25 27 30 33 32 29 28 29 27 26 28 29 29 30 31 33 33 33 34 32 30 31 33 33 33 33 29 24 23 23 22 21 21 20 20 21 22 24
1 3 5 8 7 4 4 5 3 3 4 1 3 5 4 3 2 4 7 8 9 11 11 11 14 14 9 13 19 24 29 29 26 25 27 28 27 29 30 30 27 26 26 25 23 20 20 23 25 27 31 33 31 29 29 28 26 26 26 27 30 32 33 33 34 34 34 33 33 34 32 31 31 31 30 26 23 22 21 22 22 22 21 22 22 23
2 3 6 8 8 6 4 2 2 1 3 7 6 5 6 4 1 5 8 8 8 11 14 13 14 14 12 16 23 28 31 29 24 25 29 29 27 28 28 27 26 26 26 26 25 22 20 21 22 25 29 30 30 32 30 25 24 25 24 26 29 32 32 32 33 35 37 38 39 38 36 34 32 30 28 26 24 23 23 23 24 24 24 25 26 25
4 3 5 6 7 9 8 7 8 9 8 8 8 4 5 4 2 6 8 8 9 14 16 13 14 19 22 24 29 31 30 26 26 29 30 29 28 29 27 25 26 25 25 27 26 22 20 19 21 26 29 28 28 30 27 22 21 26 29 28 29 29 31 34 36 39 43 44 42 39 38 36 32 29 27 26 26 26 26 26 26 27 28 28 29 27
3 2 5 7 6 7 9 11 12 13 11 10 13 11 1 5 1 4 6 8 12 16 15 12 16 26 31 30 30 30 27 26 29 32 31 29 29 29 27 26 26 25 25 26 23 20 21 21 22 26 29 29 29 28 24 20 22 29 32 32 32 32 32 33 36 39 41 39 36 34 34 33 29 28 27 27 27 28 29 30 30 30 30 30 29 28
4 1 6 7 8 10 13 16 15 13 13 13 15 13 5 1 2 4 7 11 15 15 15 19 26 30 30 31 31 27 26 28 31 32 31 30 30 28 27 29 30 29 27 24 21 20 22 24 23 24 27 30 30 26 21 21 25 29 30 31 34 36 35 34 36 38 36 33 31 31 31 30 28 27 27 27 28 29 30 30 31 30 29 28 27 26
3 1 5 6 10 13 14 14 13 12 13 14 12 11 9 6 6 10 12 13 14 14 18 27 35 32 29 30 28 26 28 31 31 31 31 30 29 29 31 32 32 31 28 25 23 22 23 25 23 22 27 31 28 23 21 24 28 30 32 34 35 34 32 34 36 35 32 30 29 29 29 28 26 26 27 27 28 28 28 28 29 28 27 26 25 25
1 2 5 5 11 14 11 10 14 14 13 13 9 6 7 9 10 12 14 15 17 18 20 28 35 32 25 24 26 28 30 29 28 29 30 30 31 32 33 33 31 29 27 26 26 25 25 25 24 24 28 27 21 20 24 27 30 31 33 36 36 32 32 36 37 35 32 30 28 27 26 25 25 26 27 27 27 27 27 27 27 27 25 24 24 25
3 5 5 5 8 10 9 12 17 16 12 11 7 4 8 12 11 11 14 17 19 20 24 29 30 24 19 21 27 30 29 28 28 30 31 31 32 33 34 33 29 28 28 27 28 27 26 25 25 25 22 18 17 22 26 27 31 34 35 34 33 34 37 39 38 34 30 28 26 25 25 24 25 26 26 27 27 26 27 27 27 25 23 23 25 27
5 6 5 4 5 8 10 16 21 18 9 4 4 5 9 12 12 12 14 16 18 23 28 27 21 17 19 25 29 30 30 31 31 31 30 29 32 35 34 31 29 28 29 29 29 28 26 26 26 20 15 15 20 24 27 30 33 35 34 32 34 39 41 39 35 30 26 25 25 26 26 26 27 26 25 25 25 26 26 26 25 25 24 25 27 27
4 5 5 5 5 8 11 17 21 17 7 1 0 4 10 14 17 18 17 19 21 21 21 19 17 20 26 31 32 31 32 31 28 27 27 28 32 33 30 29 31 31 31 31 29 27 27 26 22 15 13 18 23 26 31 34 34 32 32 33 37 41 40 35 30 26 24 26 28 28 28 27 26 25 24 25 27 29 29 27 26 26 26 27 28 26
5 5 5 3 3 8 13 17 15 8 6 4 3 6 11 15 18 22 22 23 23 20 17 17 21 26 30 31 32 33 31 28 27 28 28 27 26 26 29 30 31 31 32 30 28 28 27 21 16 15 18 23 28 32 35 33 29 29 32 36 38 38 34 29 26 26 28 30 29 28 28 27 25 25 26 28 30 30 29 27 27 27 27 27 27 27
5 6 4 2 4 7 11 13 8 5 8 4 5 7 13 14 18 25 25 21 23 23 21 22 26 30 31 30 30 32 32 31 31 30 29 27 23 24 29 31 30 31 31 28 27 28 23 16 16 20 25 30 33 33 31 29 29 31 33 35 37 34 28 26 27 30 31 30 28 27 27 26 25 26 29 31 31 29 27 26 25 25 26 25 24 23
5 5 4 3 4 5 7 8 5 8 10 2 6 5 12 13 17 22 21 20 21 20 20 24 28 30 31 31 30 30 32 33 28 23 23 24 25 26 27 28 30 31 28 28 31 26 17 16 20 26 31 35 35 31 29 31 32 33 33 32 33 32 29 29 31 31 29 27 26 27 27 26 27 29 31 32 30 27 26 24 23 23 23 22 22 20
4 4 4 3 2 3 6 7 7 11 8 2 4 5 11 14 18 19 18 19 17 17 21 27 30 30 30 30 30 31 33 31 22 17 18 23 27 30 28 29 32 32 31 37 34 21 16 22 28 31 34 33 30 31 34 35 33 32 32 31 32 33 31 30 30 28 26 25 26 27 29 29 29 31 32 31 28 27 26 24 23 22 22 22 21 18
2 2 3 3 2 3 6 7 6 8 6 2 4 10 14 17 20 19 18 15 12 19 26 28 29 31 30 29 30 31 29 24 19 17 19 26 32 32 31 33 36 37 40 42 32 20 24 31 33 36 35 29 29 35 37 34 32 31 32 32 32 31 29 27 27 26 25 26 27 29 31 30 30 31 31 30 28 27 26 26 23 22 22 21 17 14
1 2 2 4 4 4 5 6 6 6 4 5 9 14 17 19 20 19 14 10 12 22 27 27 28 29 29 29 30 27 21 18 18 18 24 33 36 33 32 33 37 42 45 39 28 26 34 38 37 36 32 30 36 40 34 30 31 31 32 32 31 28 26 26 27 27 26 27 29 31 32 31 31 31 31 30 29 27 26 26 24 23 22 19 15 14
0 3 3 3 4 5 6 6 5 5 4 6 11 16 20 20 18 15 11 9 17 24 25 25 27 27 27 27 26 21 18 17 18 22 30 37 38 37 37 34 35 42 41 32 29 35 41 41 38 34 31 35 40 36 29 29 31 32 32 31 28 26 26 27 28 27 27 28 30 32 32 31 31 31 31 30 29 29 27 25 25 23 20 18 16 15
2 2 2 3 4 6 6 6 6 5 4 7 13 17 20 18 13 10 10 13 20 25 24 23 25 26 26 25 20 17 18 20 23 28 33 35 35 38 42 42 42 42 36 29 34 42 41 37 36 32 32 37 38 31 29 32 33 33 31 28 27 26 27 28 28 27 28 30 32 33 32 31 31 32 32 31 29 28 26 25 24 21 18 17 16 16
3 3 3 4 5 5 4 5 7 5 1 9 17 17 15 13 10 9 12 16 21 24 23 23 24 24 25 24 21 19 22 27 29 30 31 32 33 34 39 44 44 40 35 35 41 43 39 36 36 34 33 35 33 29 31 34 34 32 29 27 27 28 28 29 28 27 29 31 32 32 32 32 33 32 32 31 29 27 27 25 22 18 16 16 16 17
2 4 4 3 3 4 5 4 5 4 4 13 18 13 9 10 10 11 14 17 19 22 22 21 21 22 23 24 24 25 28 30 31 29 29 30 31 33 38 40 38 35 38 42 42 41 40 38 35 34 33 33 31 31 34 35 33 30 29 28 29 29 29 29 27 28 30 31 31 32 32 33 34 32 31 30 28 27 27 25 20 16 16 16 16 16
2 1 5 3 2 2 4 3 4 7 9 13 13 9 9 12 12 13 13 14 16 18 18 17 19 23 25 25 26 27 28 29 30 31 31 30 30 32 36 39 39 38 40 41 40 40 40 37 34 34 33 32 33 34 35 34 31 30 30 29 29 30 29 28 28 29 30 30 30 31 32 33 33 31 29 27 26 25 24 22 19 17 17 16 16 16
3 2 4 4 1 2 6 8 9 11 11 11 9 10 13 14 14 14 15 14 14 15 15 16 20 23 25 27 27 26 25 27 30 31 29 28 28 30 31 35 39 40 40 39 40 40 39 36 34 33 33 34 35 35 34 32 30 30 30 30 30 30 29 28 29 29 30 30 30 31 32 32 31 29 28 26 24 23 21 21 21 18 17 17 16 15
1 1 3 4 6 7 9 10 12 12 12 12 12 12 13 13 12 13 14 14 14 15 16 17 20 24 25 26 25 24 25 28 31 30 28 26 28 30 32 34 37 40 41 40 40 40 37 35 33 32 33 35 35 34 32 30 30 30 30 31 30 29 28 28 29 30 29 29 29 29 30 30 28 27 26 24 23 20 19 19 19 19 19 18 15 13
2 0 3 6 8 8 8 10 12 13 14 14 13 11 12 13 13 12 13 14 15 17 18 19 23 25 26 25 25 26 27 29 30 29 27 25 26 28 30 32 35 39 39 39 40 40 37 33 32 33 34 35 35 33 32 30 30 29 30 30 30 29 28 29 29 29 29 29 29 27 26 25 26 25 25 23 22 20 19 19 18 18 18 17 15 14
1 1 4 7 8 9 12 13 14 15 15 13 11 10 12 14 15 16 16 18 20 22 23 25 26 25 24 24 25 26 28 28 28 28 26 25 26 27 29 32 36 39 39 38 39 38 35 33 33 33 34 34 34 33 31 30 30 30 30 30 29 28 28 28 28 29 28 28 27 25 23 22 23 24 23 22 21 19 20 20 19 19 19 17 15 15
2 4 5 8 9 10 12 13 15 16 14 11 11 13 14 15 17 19 19 20 21 22 23 26 29 28 27 28 28 28 28 28 27 28 27 24 24 27 31 32 34 37 40 39 37 35 34 33 34 34 34 33 33 32 31 30 31 31 30 29 28 27 28 29 29 28 27 25 23 22 21 21 21 21 21 22 21 20 19 18 18 19 21 20 17 15
3 5 5 7 8 8 10 13 14 14 12 11 14 17 17 18 18 19 19 19 19 20 21 24 28 31 33 34 33 29 26 26 28 30 27 22 23 29 35 37 35 35 37 37 35 34 33 33 33 34 34 33 32 31 30 31 31 30 29 28 28 27 27 29 29 27 25 24 22 21 22 21 20 20 20 20 21 23 23 23 21 19 20 21 20 20
2 4 4 6 7 9 13 14 13 11 12 14 16 18 18 20 19 18 20 20 20 23 25 24 25 27 30 34 37 33 27 27 34 33 26 24 29 34 36 38 37 36 38 37 34 33 34 34 33 33 32 32 31 30 31 32 31 30 29 29 28 27 26 27 27 26 25 24 23 22 23 21 20 20 19 19 19 20 22 26 27 24 22 20 20 23
Wind_Direction
3 47 48 36 18 1 6 359 331 313 293 291 290 284 293 300 312 319 317 356 55 323 300 303 301 270 203 183 177 174 181 182 180 174 142 62 28 20 8 10 4 1 359 353 351 352 352 352 352 350 346 342 339 337 334 329 327 326 325 322 322 327 330 330 330 330 329 328 325 323 320 317 315 313 311 309 310 312 311 308 303 291 270 260 257 252
36 54 50 25 3 337 342 316 293 296 285 281 287 300 312 315 319 314 311 341 66 320 298 299 297 271 222 183 176 176 186 188 176 168 132 55 23 14 4 4 358 355 349 345 349 349 348 348 348 348 346 343 341 338 334 329 325 324 322 318 317 322 326 327 327 326 324 322 321 318 313 309 307 305 298 293 298 305 307 310 312 307 291 269 261 256
52 56 34 1 336 304 292 280 305 309 288 274 298 325 326 325 321 309 304 291 296 298 290 297 298 279 233 176 179 185 188 180 155 147 109 45 13 8 3 2 355 350 346 345 348 344 344 344 342 345 345 341 338 334 331 329 324 322 319 315 314 316 319 321 322 322 319 317 316 312 308 306 303 300 295 284 281 284 286 297 307 306 302 284 260 250
43 37 18 343 310 313 312 350 351 339 313 301 329 341 326 325 324 310 310 308 294 277 278 290 292 279 227 169 185 189 180 166 154 155 133 68 12 12 359 357 357 348 342 341 335 331 335 335 333 339 341 337 333 329 328 326 323 318 314 312 311 309 312 315 315 316 314 313 314 310 306 306 303 299 296 289 280 269 264 281 298 298 302 299 282 264
55 23 357 308 269 304 328 6 10 351 330 336 7 356 327 317 312 301 305 308 298 275 260 273 286 275 189 178 193 180 176 175 170 178 159 78 15 10 355 355 355 344 338 336 330 330 333 330 328 333 335 332 328 325 323 321 317 312 309 308 307 306 307 307 307 309 309 309 310 310 308 307 306 302 297 293 289 277 270 280 288 290 294 293 292 291
52 47 318 307 285 330 347 3 18 352 327 338 57 1 327 309 304 301 306 311 305 290 194 201 292 299 175 190 194 170 179 186 176 181 162 30 9 1 355 354 349 342 339 335 331 332 332 329 329 331 331 329 325 321 320 317 311 306 304 303 303 303 304 305 306 308 307 307 308 308 307 307 305 301 296 292 292 293 291 289 288 289 289 284 285 290
33 42 249 300 315 1 7 6 17 357 328 329 24 348 316 299 298 301 310 312 296 304 277 201 273 303 272 215 188 169 180 184 175 173 110 7 2 357 354 352 346 343 339 333 332 333 330 330 332 330 329 327 323 320 318 314 309 304 301 302 301 302 304 306 307 308 307 306 306 305 303 301 298 293 290 289 289 291 292 290 289 289 287 284 284 282
3 356 356 333 340 11 9 353 0 356 320 319 343 330 307 299 300 301 308 296 278 299 290 234 226 281 303 277 158 166 183 180 173 172 5 355 356 353 350 349 344 342 339 336 335 334 331 331 332 330 327 324 322 321 318 313 309 305 302 302 302 302 304 305 306 307 305 303 302 302 300 297 294 289 287 287 285 285 287 286 284 284 284 285 286 284
6 6 9 344 355 15 355 340 345 338 301 314 325 314 298 292 290 292 294 279 283 300 296 266 227 277 303 320 149 163 192 187 174 126 8 357 354 350 346 347 344 343 342 339 335 331 328 329 329 328 325 321 320 319 317 313 309 306 306 307 308 306 304 305 307 307 304 300 299 299 298 296 293 289 287 286 282 279 280 281 281 282 282 282 282 283
45 29 357 328 7 11 340 330 330 322 303 304 307 301 292 284 277 277 274 275 290 283 296 352 343 310 303 301 259 176 200 192 151 21 358 353 350 347 345 346 344 343 342 336 332 328 327 327 327 325 321 318 318 318 315 312 309 309 311 312 312 308 306 306 308 308 305 301 297 296 295 295 294 291 287 285 283 280 278 276 278 280 280 279 279 279
135 90 319 339 28 358 321 312 311 309 286 288 302 308 308 304 291 271 257 278 293 285 313 339 334 324 303 299 324 111 147 78 52 0 351 348 345 345 345 344 340 342 340 334 329 326 324 324 324 324 321 320 321 319 314 312 311 313 313 314 313 310 309 309 309 308 306 301 296 294 293 293 293 292 289 285 283 282 280 277 276 277 276 275 275 276
157 167 122 80 22 335 315 309 300 247 265 290 323 332 328 327 322 288 292 316 311 308 325 331 329 322 299 303 52 99 119 86 43 3 354 345 339 338 339 338 337 339 338 334 330 326 322 321 324 325 322 321 321 317 314 313 313 312 313 315 316 314 313 311 310 309 305 301 296 293 291 290 289 289 288 286 284 283 282 280 278 277 275 272 271 270
184 146 109 123 208 333 332 331 346 282 294 330 347 346 345 346 350 335 332 343 322 307 314 324 326 314 295 333 90 110 115 93 41 7 351 340 333 331 331 330 332 338 339 336 331 325 322 322 325 325 321 320 319 315 315 315 313 312 314 316 317 316 315 314 312 309 304 300 297 294 291 289 288 287 286 287 284 282 281 280 280 278 277 276 274 269
10 117 97 104 152 16 352 348 356 339 336 354 354 355 5 358 343 329 326 328 311 303 309 318 319 300 301 342 111 104 86 91 34 2 345 339 335 329 327 327 335 343 343 339 331 325 325 325 326 325 322 321 318 316 316 314 312 312 314 316 318 316 315 314 313 309 305 302 299 296 292 289 288 286 286 286 285 282 279 278 279 279 277 276 276 274
334 356 65 36 13 15 13 17 344 317 318 349 347 349 15 4 329 308 313 318 307 304 309 312 307 309 323 347 128 100 88 93 8 356 348 346 342 333 330 334 342 343 339 333 328 326 326 327 326 324 322 322 319 316 315 314 314 314 314 317 318 316 314 313 313 311 308 305 302 299 295 291 289 287 285 285 285 284 281 278 277 277 277 276 275 275
321 325 47 51 62 2 10 47 259 304 322 349 330 322 3 344 309 288 293 302 303 301 308 310 300 315 328 136 131 97 76 318 337 349 350 346 342 336 332 335 338 336 332 330 328 326 326 326 325 323 322 321 319 317 318 320 319 314 315 318 318 316 313 312 313 313 310 306 304 302 298 294 289 285 283 282 282 283 282 280 279 277 277 276 275 275
323 317 334 343 143 63 19 59 152 338 343 339 330 354 340 310 286 298 301 301 304 299 303 313 306 313 320 276 146 160 286 318 330 343 345 338 334 331 326 327 330 331 330 329 327 325 325 325 322 322 321 318 322 329 329 325 318 314 316 317 318 317 313 310 312 313 311 308 306 303 300 296 292 285 279 280 282 282 282 281 278 277 276 275 275 274
346 296 299 295 305 63 81 119 97 68 340 338 356 8 331 287 222 321 315 311 312 302 301 312 311 311 315 316 157 266 309 323 332 339 339 334 332 328 321 322 326 330 331 328 328 326 324 323 321 322 320 318 328 337 328 320 317 318 318 317 320 318 311 309 311 312 311 310 306 304 301 299 296 289 279 279 283 284 284 280 275 274 273 273 273 272
339 295 298 228 328 354 153 152 80 95 46 22 49 34 1 322 332 337 321 314 313 307 302 312 312 306 304 321 336 321 318 327 335 337 336 332 330 325 323 324 324 327 329 327 327 326 324 323 322 320 320 323 331 329 321 320 320 321 320 318 320 317 310 310 311 309 310 309 304 302 301 300 298 294 286 282 283 284 283 280 277 276 274 274 273 272
306 289 324 134 315 315 251 330 350 9 57 101 159 51 38 357 325 325 309 302 310 309 309 314 309 298 318 328 323 321 328 336 336 333 332 329 327 326 326 325 324 325 328 327 326 326 325 325 323 322 324 328 328 322 321 323 323 323 322 320 322 321 318 316 311 309 308 307 304 302 301 300 299 298 293 287 285 285 283 280 279 278 276 275 273 272
297 268 291 309 319 320 322 26 360 341 351 349 329 1 15 350 321 310 300 299 312 310 308 311 302 294 328 327 315 327 335 335 331 328 328 328 328 327 324 324 325 326 327 326 326 327 326 325 325 327 328 327 322 320 323 325 324 323 323 325 326 325 321 316 311 309 307 305 303 302 302 301 301 301 295 288 285 285 283 284 284 282 282 281 277 274
338 284 293 312 325 333 5 66 36 355 349 340 344 11 18 359 342 325 317 318 320 304 298 303 296 290 314 328 326 332 331 329 330 329 328 329 327 324 323 324 325 325 326 325 325 328 328 328 330 330 325 322 320 321 324 325 324 324 327 328 324 321 320 316 313 313 312 310 307 307 311 311 307 301 292 285 285 286 285 286 288 287 287 286 283 279
356 287 288 310 321 341 39 86 63 52 85 119 102 89 45 19 11 337 318 315 315 303 295 296 288 282 310 336 328 328 328 329 331 329 328 328 325 323 324 325 325 325 325 324 324 326 328 329 329 325 322 322 323 323 323 324 326 327 328 327 326 329 331 329 325 325 324 321 315 313 314 312 307 302 293 286 284 284 284 285 288 289 286 284 283 280
347 297 311 319 319 343 86 107 95 123 158 163 67 71 62 53 24 299 285 294 303 300 301 301 287 283 315 335 325 326 329 329 329 330 329 327 324 325 325 325 326 325 323 324 323 323 327 326 323 323 324 323 321 321 323 324 328 330 331 332 335 336 335 332 329 327 324 320 315 312 309 306 305 301 294 289 285 284 285 287 289 289 287 286 283 279
337 340 343 336 333 341 356 14 354 276 292 321 345 64 89 84 331 276 271 282 292 298 306 304 287 287 311 325 323 326 329 330 331 330 327 325 325 326 326 325 326 325 324 324 321 322 326 325 323 325 324 321 319 321 324 329 333 333 335 336 333 328 326 327 325 324 320 315 309 306 303 301 299 293 288 286 287 287 287 288 288 288 287 288 286 281
317 334 4 0 343 335 330 326 326 322 318 316 319 354 97 107 343 303 298 302 305 309 307 291 281 296 310 320 324 327 328 331 332 329 326 326 325 325 326 326 326 326 325 323 321 323 325 325 325 323 320 320 320 320 324 332 333 330 328 325 322 319 319 320 319 318 315 309 302 299 299 298 294 290 285 282 282 283 283 284 285 285 284 284 284 280
291 313 30 10 325 303 303 298 301 309 310 306 312 319 30 128 126 302 302 308 312 313 303 285 293 305 312 320 326 329 331 331 330 329 328 326 326 326 326 325 325 325 323 322 321 322 325 325 324 321 319 320 318 319 323 324 324 325 322 318 317 314 312 313 315 312 308 305 301 299 299 297 294 292 290 286 284 283 282 283 282 280 280 279 278 276
284 313 34 354 300 283 289 288 292 305 304 302 309 312 305 183 222 272 286 302 315 316 305 307 314 313 313 321 326 330 333 331 329 329 329 326 325 325 325 325 324 323 322 321 319 321 325 324 322 319 318 318 318 320 321 319 319 321 319 316 316 314 310 312 314 310 305 305 305 302 300 299 297 297 296 293 290 287 285 284 281 279 277 275 273 272
279 346 22 331 297 296 294 291 303 312 303 300 303 300 299 302 304 301 296 300 312 307 300 310 316 314 313 321 328 332 332 330 328 327 327 325 323 324 326 325 322 321 321 319 318 322 323 321 320 318 316 317 319 318 316 317 318 319 318 317 314 311 312 314 313 310 306 303 302 301 301 301 301 301 299 296 293 290 288 286 283 280 276 275 276 275
258 351 4 331 305 301 297 307 319 316 303 299 291 273 289 304 312 314 308 310 311 301 299 309 312 311 314 322 327 330 330 328 326 326 326 324 323 325 325 323 321 320 319 318 319 321 321 319 318 316 317 320 322 316 315 319 321 320 320 319 317 315 317 317 313 309 306 300 299 301 302 302 302 301 299 297 295 293 292 289 286 281 275 274 278 278
342 349 351 337 307 300 314 328 323 317 309 298 274 256 302 313 321 326 320 321 319 309 310 313 311 310 319 325 325 327 328 328 328 328 327 324 322 322 322 320 320 320 318 319 319 318 317 317 316 317 322 325 322 319 319 321 323 321 319 320 321 318 317 317 313 308 303 300 301 305 305 304 303 301 298 297 296 294 292 290 287 283 279 278 280 278
355 346 336 340 314 306 330 333 322 317 315 284 256 292 324 330 332 330 325 324 321 316 316 318 316 318 328 329 326 326 328 329 329 327 325 322 319 318 319 319 319 320 320 319 318 316 316 317 317 322 330 327 321 322 322 320 321 319 318 321 321 316 315 315 311 306 305 306 310 309 306 303 302 302 302 301 300 299 295 291 288 285 282 280 279 277
13 345 334 348 316 299 326 330 317 308 307 280 263 356 353 342 329 324 324 322 320 319 320 320 321 325 328 328 325 326 328 328 328 325 322 319 315 314 318 320 320 320 320 318 318 318 317 318 323 333 337 329 325 325 323 321 321 320 321 323 321 317 314 311 310 311 313 312 310 307 305 304 302 302 304 305 303 300 294 290 288 286 283 280 278 274
6 339 330 346 305 301 321 325 314 308 336 357 78 48 4 343 332 326 324 324 323 322 320 320 324 327 328 327 325 324 326 327 326 322 317 316 315 315 318 320 320 320 320 319 319 319 319 324 336 339 333 328 326 324 322 321 321 321 322 322 321 317 312 312 318 321 315 309 307 307 307 305 302 302 305 305 304 299 292 286 284 282 280 278 274 269
358 337 327 313 290 296 316 328 334 350 346 349 112 53 357 341 333 324 318 321 322 319 322 328 329 328 327 326 325 323 323 324 323 319 314 315 320 320 319 320 321 320 320 320 320 320 325 337 342 336 331 328 325 323 324 324 322 320 319 320 320 316 312 317 321 315 308 306 309 310 310 307 304 304 305 305 304 300 294 287 281 279 279 279 276 269
0 334 318 308 309 311 323 338 334 313 319 0 118 32 350 343 337 326 317 320 321 323 333 334 328 327 327 326 325 324 324 323 320 315 314 317 321 323 321 320 321 320 320 321 319 321 333 344 338 334 331 328 325 326 329 327 322 318 318 321 320 316 314 316 314 308 307 310 313 314 312 310 307 305 304 305 303 298 294 288 282 280 281 283 284 279
13 342 329 321 331 338 322 312 293 293 307 85 107 355 351 346 339 330 317 314 322 336 342 333 326 328 329 326 326 327 325 322 318 314 318 321 324 325 323 321 321 321 321 320 320 327 342 339 335 331 328 327 329 330 327 324 321 318 318 319 319 316 313 311 309 308 310 314 315 314 311 308 306 304 303 304 301 296 293 289 284 282 282 281 282 282
42 332 322 308 308 337 317 309 310 309 318 40 3 347 353 344 333 326 311 305 333 348 340 332 328 329 329 326 327 328 327 323 319 319 322 326 328 327 324 324 324 324 322 321 323 336 340 335 333 332 331 333 332 326 321 321 323 321 318 317 317 315 312 310 311 313 314 315 314 312 309 307 304 304 303 301 298 294 292 289 286 283 282 282 284 286
125 276 270 283 306 335 322 314 316 303 310 359 346 341 348 342 331 322 306 301 344 345 335 330 330 329 328 326 326 328 329 324 320 319 322 325 328 328 326 326 326 325 325 326 333 338 333 331 332 332 333 333 326 321 319 322 324 321 318 317 317 315 313 313 313 314 315 315 313 311 308 306 305 303 302 300 296 293 290 289 287 283 282 286 289 288
291 312 300 306 328 338 324 310 298 272 285 343 343 341 344 338 328 322 312 321 339 337 331 330 330 327 325 324 325 327 327 322 316 315 319 323 325 326 327 326 326 326 328 333 340 336 330 328 329 329 331 329 323 321 325 327 324 321 319 318 317 315 315 314 313 314 314 313 312 310 308 306 305 303 301 297 294 291 288 285 283 282 284 288 289 287
328 332 309 313 331 332 319 308 297 271 275 333 341 345 342 333 327 331 328 326 329 329 328 329 327 324 323 324 324 323 319 315 311 311 316 321 323 324 326 325 324 326 328 332 337 336 332 329 326 325 328 328 323 323 328 327 323 321 320 319 318 317 316 314 313 314 314 313 312 311 308 306 305 303 301 297 292 290 288 285 281 281 285 288 286 284
339 337 311 315 332 327 310 305 299 275 316 351 341 342 345 338 333 332 325 322 323 324 325 326 324 323 324 324 322 319 315 314 313 313 317 321 321 323 326 326 325 326 328 330 332 333 331 328 325 323 325 327 326 326 327 325 322 321 320 319 319 319 317 316 314 315 315 314 311 310 308 307 306 304 302 299 297 296 294 288 284 284 288 287 284 283
335 329 320 329 346 320 303 306 297 275 345 353 341 338 349 342 325 321 322 321 322 322 323 324 324 325 326 324 321 318 316 316 316 317 319 320 321 323 325 327 328 329 330 329 329 331 331 327 324 323 325 327 328 326 326 323 321 321 321 320 321 321 319 317 317 317 316 313 311 310 308 307 307 306 304 303 305 306 300 291 287 289 290 286 283 284
170 282 318 334 63 347 308 293 279 285 315 341 341 329 328 326 321 322 322 319 321 324 324 324 325 327 328 325 321 319 318 318 319 320 321 321 323 324 325 327 329 330 331 330 328 330 330 327 324 324 325 326 326 326 325 323 321 321 321 321 322 322 319 318 319 318 315 312 311 310 308 307 308 308 307 309 312 313 311 309 307 304 298 292 288 287
159 224 302 304 253 253 261 262 277 292 309 330 332 318 317 319 322 324 319 315 320 325 325 325 325 325 326 325 323 322 320 320 320 321 322 322 322 324 327 329 329 328 329 330 329 329 329 326 325 325 326 325 325 325 324 323 322 321 320 321 322 321 319 320 320 317 314 312 311 309 308 308 309 309 310 314 317 318 320 324 323 316 308 302 297 295
132 267 297 288 279 276 266 271 291 304 313 321 317 312 315 320 324 324 318 316 319 321 323 325 323 323 324 324 323 322 322 323 323 322 322 321 322 324 326 328 330 330 329 329 330 330 329 326 326 326 325 325 326 325 324 324 323 322 321 322 322 321 321 321 319 316 314 312 311 309 308 310 311 312 315 318 318 318 320 322 323 320 316 314 314 314
102 81 290 286 296 302 292 296 314 320 319 318 314 313 319 323 326 326 320 318 319 319 321 322 322 323 323 322 322 322 321 323 323 322 322 322 324 327 327 326 328 330 330 329 328 328 328 328 327 328 327 326 326 326 325 324 323 322 321 321 322 322 323 321 318 316 314 312 311 310 310 311 313 315 317 318 318 320 322 323 324 321 316 321 332 331
100 292 295 298 304 295 285 297 318 322 315 311 312 320 326 326 326 326 322 319 318 317 318 319 321 323 323 321 322 322 320 320 322 322 323 323 324 326 327 327 328 328 328 328 328 328 328 328 328 328 327 326 325 325 324 324 323 321 322 323 324 325 324 321 319 316 313 312 311 311 311 312 313 315 315 316 317 319 321 323 324 320 314 320 334 332
312 293 306 312 306 291 288 309 328 324 313 312 321 326 327 325 324 322 319 318 317 317 317 319 319 321 321 322 323 322 319 319 321 322 322 322 324 325 323 325 328 328 327 327 328 328 328 328 328 328 327 325 324 324 323 322 322 322 324 325 326 326 324 322 320 317 315 314 313 313 313 312 313 315 315 316 317 316 315 315 314 311 310 318 330 331
312 303 321 316 304 296 303 321 329 321 311 315 321 323 323 322 320 318 317 317 317 318 318 318 318 319 321 322 324 323 319 316 318 320 320 320 322 323 323 323 326 327 327 328 328 327 328 328 327 327 326 325 324 323 323 322 322 324 326 326 326 326 323 322 321 319 319 318 316 316 316 315 315 317 317 317 319 319 320 321 322 322 320 320 326 330
323 320 320 300 290 292 301 312 320 313 301 305 312 316 318 318 316 316 317 317 317 317 319 318 318 319 320 321 321 321 320 318 317 318 319 319 318 320 323 325 325 325 327 329 328 327 328 328 327 326 324 324 324 322 322 322 322 324 326 326 326 324 323 323 323 320 320 319 317 316 317 315 315 316 315 315 317 318 320 323 327 334 336 329 327 333